Torna al catalogo

STARLINK-33799

AttivoComunicazioniVLEO
NORAD 63447·PAYLOAD·🇺🇸 United States

Lanciato Apr 4, 2025 da Vandenberg Space Force Base

Loading…

Prossimi Passaggi (prossime 24 ore)

TLE

AggiornatoSource: CelesTrak SupGP

Epoca: Sep 14, 2026, 23:09 UTC

1 63447C 25069Q   26257.96506944  .00011203  00000+0  33098-3 0  2570
2 63447  53.1594 341.7043 0001086  85.9343   9.8039 15.34385403    18

Traccia STARLINK-33799 in tempo reale con AllMySat

Download on the App Store